Regional Weather Roundup
Issued by NWS

Home | Current Version | Previous Version | Graphics & Text | Print | Product List | Glossary On
Versions: 1 2 3 4 5 6 7 8 9 10 11 12 13 14 15 16 17 18 19 20 21 22 23 24 25 26 27 28 29 30 31 32 33 34 35 36 37 38 39 40 41 42 43 44 45 46 47 48 49 50
000
ASUS43 KLOT 302310
RWRIL

ILLINOIS REGIONAL WEATHER ROUNDUP
NATIONAL WEATHER SERVICE CHICAGO/ROMEOVILLE IL
600 PM CDT WED JUL 30 2014

NOTE: "FAIR" INDICATES FEW OR NO CLOUDS BELOW 12,000 FEET WITH NO
SIGNIFICANT WEATHER AND/OR OBSTRUCTIONS TO VISIBILITY.

* THESE STATIONS ARE NOT UNDER NWS QUALITY CONTROL. THEY ALSO MAY NOT
  REPORT WEATHER SUCH AS PRECIPITATION OR FOG.

ILZ001-002-007-009-015-016-024-310000-
NORTHWEST ILLINOIS

CITY           SKY/WX    TMP DP  RH WIND       PRES   REMARKS
MOLINE         MOSUNNY   80  57  45 NW10      30.02F HX  80
STERLING*      SUNNY     79  59  50 NW8       30.02F HX  80
SAVANNA*       MOSUNNY   80  52  37 N9        30.02F HX  80
$$

ILZ003-004-008-010-011-017-018-310000-
NORTH CENTRAL ILLINOIS

CITY           SKY/WX    TMP DP  RH WIND       PRES   REMARKS
ROCKFORD       MOSUNNY   79  55  43 NW8       30.02F
FREEPORT*      MOSUNNY   78  57  48 W10       30.04F
ROCHELLE*      MOSUNNY   78  54  43 W9G16     30.02F
DE KALB*       PTSUNNY   74  57  54 NW8       30.02F
PERU*          MOSUNNY   77  60  56 W7        30.02F
$$

ILZ005-006-012>014-019>023-310000-
NORTHEAST ILLINOIS

CITY           SKY/WX    TMP DP  RH WIND       PRES   REMARKS
CHICAGO-OHARE  MOSUNNY   73  56  54 NE9       30.00F
CHICAGO-MIDWAY MOSUNNY   73  60  63 E7        30.01F
AURORA         SUNNY     77  59  53 W8        30.01F
LANSING*       SUNNY     70  59  69 NE7       30.01F
JOLIET*        MOSUNNY   77  53  42 NW6       30.01F
WAUKEGAN       SUNNY     67  56  67 E8        30.01F
DUPAGE AIRPORT MOSUNNY   76  56  49 NW8       30.00F
KANKAKEE*      MOSUNNY   76  61  60 W8        30.02S
WHEELING       SUNNY     71  57  61 E6        30.03S
MORRIS*        SUNNY     78  59  51 NW8       30.01S
ROMEOVILLE*    MOSUNNY   77  54  44 W10G17    30.00F
NORTHERLY ISL    N/A     66  59  78 NE5         N/A
$$

LMZ740>746-310000-
SOUTHERN LAKE MICHIGAN

STATION/POSITION SKY/WX   TEMP    WIND        PRES    VSBY  WAVE
                          AIR SEA DIR/SP/G                  HT/PER
                          (F)     (DEG/KT/KT) (MB)    (MI)  (FT/S)
SOUTHERN BUOY              62 62   10/  2/  2 1016.5F         1
WAUKEGAN HARBOR            63     100/  3/  4   N/A
HARRISON CRIB              64      30/  7/  9   N/A
BURNHAM HARBOR             66      40/  4/  8   N/A
CALUMET HARBOR             66      20/  7/  8 1015.4R
BURNS HARBOR               67      50/  9/ 10 1016.9F
MICHIGAN CITY              64      20/  8/  9   N/A
MICHIGAN CITY 6N           65 69   40/  6/  8   N/A           1/ 3
ST. JOSEPH                 63 68   10/  8/ 10   N/A           1/ 3
$$

ILZ025>027-034>036-040-047-049-050-058-095>099-310000-
WEST-CENTRAL ILLINOIS

CITY           SKY/WX    TMP DP  RH WIND       PRES   REMARKS
QUINCY         MOSUNNY   78  54  43 N5        30.06S
GALESBURG*     MOSUNNY   81  62  52 W7        30.05S HX  82
MACOMB*        SUNNY     77  59  53 W6        30.07F
JACKSONVILLE*  MOSUNNY   80  61  52 N5        30.06F HX  81
PITTSFIELD*    MOSUNNY   79  58  48 N5        30.07S HX  80
$$

ILZ028>032-037-038-041>044-048-051>054-059>061-310000-
CENTRAL ILLINOIS

CITY           SKY/WX    TMP DP  RH WIND       PRES   REMARKS
PONTIAC        SUNNY     79  61  53 W8        30.02F HX  80
DECATUR        MOSUNNY   80  57  45 NW6       30.04F HX  80
PEORIA         SUNNY     81  55  40 NW9       30.03F HX  81
LACON*         SUNNY     78  57  49 NW6       30.02S
LINCOLN*       SUNNY     81  57  44 CALM      30.01F HX  81
SPRINGFIELD    SUNNY     80  59  48 W6        30.05S HX  81
TAYLORVILLE    PTSUNNY   73  61  64 N5        30.05S
$$

ILZ033-039-045-046-055>057-062-063-310000-
EAST-CENTRAL ILLINOIS

CITY           SKY/WX    TMP DP  RH WIND       PRES   REMARKS
CHAMPAIGN      SUNNY     78  60  53 W10       30.04F
DANVILLE*      SUNNY     76  62  62 W9        30.00S
RANTOUL*       MOSUNNY   80  58  46 W9        30.03F HX  80
MATTOON        SUNNY     78  58  49 W9        30.04S
PARIS*         MOSUNNY   78  62  58 W6        30.04S
$$

ILZ079-100>102-310000-
SOUTHWEST ILLINOIS

CITY           SKY/WX    TMP DP  RH WIND       PRES   REMARKS
ALTON          MOSUNNY   79  55  44 NW7       30.05F
BELLEVILLE     MOSUNNY   80  62  53 S6        30.04F HX  81
CAHOKIA*       PTSUNNY   82  58  43 SE6       30.04S HX  82
SPARTA*        CLOUDY    75  61  60 SW7       30.07S
$$

ILZ064>066-069>071-074>076-080>082-084>086-088>090-092>094-310000-
SOUTH-CENTRAL ILLINOIS

CITY           SKY/WX    TMP DP  RH WIND       PRES   REMARKS
CARBONDALE     PTSUNNY   75  60  59 SW8       30.07S
CAIRO*         CLOUDY    77  63  61 S3        30.07F
EFFINGHAM*     PTSUNNY   80  51  36 NW8       30.04S
MARION         PTSUNNY   77  61  57 SW12      30.08S
MT. VERNON     MOSUNNY   79  61  53 SW13      30.06S HX  80
CENTRALIA*     MOSUNNY   82  57  41 SW8       30.05S HX  82
SALEM*         MOSUNNY  N/A N/A N/A W6        30.05S
METROPOLIS*    CLOUDY    76  53  44 CALM      30.07F
$$

ILZ067-068-072-073-078-083-087-091-310000-
SOUTHEAST ILLINOIS

CITY           SKY/WX    TMP DP  RH WIND       PRES   REMARKS
LAWRENCEVILLE  SUNNY     79  58  48 W7        30.04F HX  80
FLORA*         SUNNY     80  51  35 W8        30.04S HX  80
FAIRFIELD*     MOSUNNY   79  64  61 SW9       30.05S HX  81
HARRISBURG*    PTSUNNY   76  60  57 SW8       30.08S
ROBINSON*      MOSUNNY   79  60  51 W7        30.05S HX  80
CARMI*         MOSUNNY   79  64  61 SW8       30.05S HX  81
$$

ABBREVIATIONS USED IN REMARKS
   TC - TEMPERATURE IN CELSIUS
  WCI - WIND CHILL INDEX
   HX - HEAT INDEX
  VSB - VISIBILITY
$$




USA.gov is the U.S. government's official web portal to all federal, state and local government web resources and services.